Current Version              Previous Version:    01  02  03  04  05  06  07  08  09  10  11  12  13  14  15  16  17  18  19  20  21  22  23  24  25  26  27  28  29  30  
   31  32  33  34  35  36  37  38  39  40  41  42  43  44  45  46  47  48  49  50  51  52  53  54  55  56  57  58  59  60  

[Printable]
997
ASUS44 KFWD 301101
RWRTX
NORTH TEXAS HOURLY WEATHER ROUNDUP
NATIONAL WEATHER SERVICE FORT WORTH TX
600 AM CDT THU OCT 30 2014

NOTE: "FAIR" INDICATES FEW OR NO CLOUDS BELOW 12,000 FEET WITH NO
SIGNIFICANT WEATHER AND/OR OBSTRUCTIONS TO VISIBILITY.

TXZ118-119-301200-
DALLAS/FORT WORTH METROPLEX

CITY           SKY/WX    TMP DP  RH WIND       PRES   REMARKS
DFW AIRPORT    CLEAR     55  46  71 CALM      30.12S
DALLAS LOVE    CLEAR     57  46  66 SE5       30.13R
FTW MEACHAM    CLEAR     56  47  71 SE5       30.12S
DAL-EXECUTIVE  CLEAR     55  47  74 S5        30.12S
FTW-ALLIANCE   CLEAR     49  45  86 CALM      30.12S
FTW-NAS-JRB    CLEAR     59  45  59 CALM      30.16F
FTW-SPINKS     CLEAR     53  46  78 CALM      30.14S
ARLINGTON      CLEAR     50  45  83 CALM      30.13S
GRAND PRAIRIE  CLEAR     56  48  73 SW3       30.14S
ADDISON        CLEAR     57  45  62 SE7       30.13F
LANCASTER      CLEAR     46  41  81 CALM      30.14S
$$

TXZ091>094-102>105-117-120-121-131>134-301200-
NORTH CENTRAL TEXAS

CITY           SKY/WX    TMP DP  RH WIND       PRES   REMARKS
SHRMAN/DENISON CLEAR     55  47  73 SE10      30.13S
GAINESVILLE    CLEAR     51  43  73 S5        30.14S
BRIDGEPORT     CLEAR     48  44  87 CALM      30.13F
DECATUR        CLEAR     57  45  63 S7        30.12S
DENTON         CLEAR     49  44  83 CALM      30.12F
MCKINNEY       CLEAR     46  42  86 CALM      30.12F
GREENVILLE     CLEAR     46  43  87 CALM      30.14S
ROCKWALL       CLEAR     54  45  72 SE7       30.12S
TERRELL        CLEAR     49  44  83 CALM      30.14S
WAXAHACHIE     CLEAR     52  48  84 CALM      30.15R
CLEBURNE       CLEAR     54  48  82 SE3       30.14S
GRANBURY       CLEAR     54  47  77 CALM      30.13F
$$

TXZ083>090-098>101-113>116-127>130-139>142-154-155-301200-
WESTERN NORTH TEXAS

CITY           SKY/WX    TMP DP  RH WIND       PRES   REMARKS
WICHITA FALLS  CLEAR     52  42  69 S8        30.10S
WF-KICKAPOO    CLEAR     51  42  70 S3        30.12R
VERNON         CLEAR     52  41  66 CALM      30.11S
ABILENE        CLEAR     59  50  72 S7        30.11S
ABILENE-DYESS  CLEAR     58  51  79 SE9       30.09F
MINERAL WELLS  CLEAR     52  44  74 SE6       30.11S
STEPHENVILLE   PTCLDY    54  47  75 CALM      30.14F
COMANCHE       MOCLDY    54  50  87 SE5       30.12F
COLEMAN        PTCLDY    57  51  80 CALM      30.12S
BRADY          CLEAR     57  55  94 SE5       30.11S
$$

TXZ143>147-156>162-174-175-301200-
CENTRAL TEXAS

CITY           SKY/WX    TMP DP  RH WIND       PRES   REMARKS
WACO           PTCLDY    52  48  86 CALM      30.12S
WACO-MCGREGOR  CLEAR     54  45  71 CALM      30.14R
CORSICANA      CLEAR     54  48  80 SE6       30.14S
MEXIA          CLEAR     54  47  79 CALM      30.12S
HEARNE         CLEAR     53  50  92 CALM      30.13S
CAMERON        CLEAR     55  52  91 CALM      30.12S
TEMPLE         MOCLDY    57  48  72 E5        30.11S
KILLEEN        CLOUDY    60  55  81 SE5       30.12R
KILLEEN-SKYLRK MOCLDY    61  50  67 SE3       30.10R
FORT HOOD      MOCLDY    62  53  72 CALM      30.12R
GATESVILLE     PTCLDY    57  52  82 CALM      30.14S
HAMILTON       CLOUDY    58  51  76 S3        30.13S
LAMPASAS       CLOUDY    58  55  89 CALM      30.11S
$$

TXZ095>097-106>112-122>126-135>138-148>153-164>167-301200-
EAST TEXAS

CITY           SKY/WX    TMP DP  RH WIND       PRES   REMARKS
PARIS          CLEAR     48  37  66 CALM      30.15R
SULPHUR SPRNGS CLEAR     47  44  91 CALM      30.16S
MOUNT PLEASANT CLEAR     41  41 100 CALM      30.15F
MINEOLA        CLEAR     45  43  93 CALM      30.15S
TYLER          CLEAR     50  46  86 CALM      30.14S
LONGVIEW       CLEAR     46  44  93 CALM      30.14R
MARSHALL       CLEAR     46  44  93 CALM      30.16F
ATHENS         CLEAR     45  45 100 CALM      30.13S
PALESTINE      CLEAR     55  47  77 CALM      30.15S
JACKSONVILLE   CLEAR     54  46  75 CALM      30.16S
HENDERSON      CLEAR     44  44 100 CALM      30.15S
NACOGDOCHES    CLEAR     43  39  87 CALM      30.15R
LUFKIN         CLEAR     49  45  86 CALM      30.13R
$$

SUPPLEMENTAL OBSERVATIONS (CENTRAL)

CITY           SKY/WX    TMP DP  RH WIND       PRES   REMARKS
$$

SUPPLEMENTAL OBSERVATIONS (WEST)

CITY           SKY/WX    TMP DP  RH WIND       PRES   REMARKS
$$

SUPPLEMENTAL OBSERVATIONS (EAST)

CITY           SKY/WX    TMP DP  RH WIND       PRES   REMARKS
$$

SUPPLEMENTAL OBSERVATIONS ARE A COLLECTION OF AUTOMATED INSTRUMENTS
THAT ARE MAINTAINED BY A VARIETY OF FEDERAL AND STATE AGENCIES.
CERTAIN ELEMENTS...SUCH AS HUMIDITY VALUES AND SUSTAINED WIND
SPEEDS...MAY BE APPROXIMATED.